2016-062A

Last updated on Wed Oct 19 2016 01:17:15 GMT+0000 (Coordinated Universal Time)

1 41818U 16062A 16292.98957296 -.00003519 11127-4 00000+0 0 9996 2 41818 51.6024 160.7725 0080179 142.3486 316.6007 15.90718871 160
UTC large
Height (km)
Speed (km/s)
/
Latitude / Longitude
Inclination (degrees)
Orbital Period (minutes)
Azimuth
Elevation
Range (km)
Doppler Factor

Next 0 passes for location: London (51.5072 / 0.1276)

Sorry there are no passes over London.